Current Version              Previous Version:    01  02  03  04  05  06  07  08  09  10  11  12  13  14  15  16  17  18  19  20  21  22  23  24  25  26  27  28  29  30  
   31  32  33  34  35  36  37  38  39  40  41  42  43  44  45  46  47  48  49  50  51  52  53  54  55  56  57  58  59  60  

[Printable]
531
ASUS44 KEWX 240402
RWRTX
SOUTH TEXAS REGIONAL WEATHER ROUNDUP
NATIONAL WEATHER SERVICE AUSTIN/SAN ANTONIO TX
1100 PM CDT TUE SEP 23 2014

NOTE: "FAIR" INDICATED FEW OR NO CLOUDS BELOW 12,000 FEET WITH NO
SIGNIFICANT WEATHER AND/OR OBSTRUCTIONS TO VISIBILITY.

* - THESE STATIONS ARE NOT NWS OR FAA STATIONS...AND ARE NOT SUBJECT
    TO NWS AND FAA QUALITY CONTROL.

TXZ171-172-183>190-240500-
TEXAS HILL COUNTRY AND EDWARDS PLATEAU

CITY           SKY/WX    TMP DP  RH WIND       PRES   REMARKS
JUNCTION       CLOUDY    73  64  73 E5        30.11R
*LLANO         PTCLDY    70  59  68 CALM      30.14R
BURNET         PTCLDY    69  55  60 E3        30.14R
*HORSESHOE BAY NOT AVBL
*KERRVILLE     MOCLDY    72  56  58 E7        30.12S
*FREDERICKSBRG PTCLDY    69  58  68 CALM      30.11S
*ROCKSPRINGS   CLOUDY    73  64  73 CALM      30.14S
*BOERNE STAGE  MOCLDY    70  54  56 E3        30.12S
*CASTROVILLE   MOCLDY    78  51  40 E9G16     30.09R
HONDO          MOCLDY    78  55  44 E7        30.09R
*UVALDE        MOCLDY    79  55  44 E9        30.08R
DEL RIO        MOCLDY    81  67  62 E6        30.03R
LAUGHLIN AFB   MOCLDY    79  68  69 SE6       30.05R
CARRIZO SPRGS  MOCLDY    77  63  61 E3        30.04R
$$

TXZ173-191>194-202-209-217>225-228-240500-
CENTRAL AND SOUTH CENTRAL TEXAS

CITY           SKY/WX    TMP DP  RH WIND       PRES   REMARKS
GEORGETOWN     MOCLDY    68  55  64 CALM      30.11S
AUSTIN/BERGSTM MOCLDY    66  60  81 CALM      30.09R
AUSTIN/MABRY   MOCLDY    73  56  54 VRB3      30.10S
*AUSTIN/EXEC   MOCLDY    68  59  73 CALM      30.10R
*LAGO VISTA    MOCLDY    69  56  64 E6        30.12S
SAN MARCOS     MOCLDY    70  54  56 NE6       30.10R
NEW BRAUNFELS  MOCLDY    72  57  59 NE7       30.07S
RANDOLPH AFB   MOCLDY    72  56  58 NE6       30.08S
PT SAN ANTONIO MOCLDY    77  56  47 NE14      30.06R
SAN ANTONIO    MOCLDY    76  56  49 E9        30.08R
STINSON FIELD  CLOUDY    77  55  46 E8        30.06R
*PLEASANTON    CLOUDY    76  53  44 E5        30.07R
*LA GRANGE     MOCLDY    70  64  83 CALM      30.07R
*GIDDINGS      MOCLDY    68  58  71 NE3       30.12S
*GONZALES      MOCLDY    72  60  66 NE3       30.07R
$$

TXZ163>164-176>182-195>201-210>213-226-227-235-240500-
SOUTHEAST TEXAS

CITY           SKY/WX    TMP DP  RH WIND       PRES   REMARKS
COLLEGE STN    MOCLDY    71  57  61 NE5       30.09S
*BRYAN         MOCLDY   N/A N/A N/A CALM      30.10R
*CALDWELL      MOCLDY    70  55  60 CALM      30.12S
*CROCKETT      MOCLDY    64  63  94 CALM      30.13S
*BRENHAM       MOCLDY    68  59  72 E5        30.10R
HUNTSVILLE     MOCLDY    66  58  75 CALM      30.10R
CONROE         MOCLDY    63  61  93 CALM      30.10R
HOUSTON BUSH   MOCLDY    70  60  70 NE5       30.08R
HOUSTON HOBBY  MOCLDY    73  58  59 NE5       30.07R
*HOUSTON SW AP MOCLDY    68  61  77 CALM      30.08S
PEARLAND       MOCLDY    71  62  73 CALM      30.08S
HOUSTON HOOKS  MOCLDY    65  60  84 CALM      30.09R
ELLINGTON FLD  MOCLDY    73  55  53 NE3       30.08S
SUGAR LAND     MOCLDY    67  60  78 NE5       30.07S
*HOUSTON EXEC  MOCLDY    68  59  73 NE5       30.10R
*CLEVELAND MUN MOCLDY    63  62  97 CALM      30.10R
*WHARTON       PTCLDY    67  58  72 NE5       30.08S
$$

TXZ214>216-236>238-240500-
THE UPPER TEXAS COAST

CITY           SKY/WX    TMP DP  RH WIND       PRES   REMARKS
*ORANGE        CLOUDY    70  58  65 NE5       30.10R
PORT ARTHUR    CLOUDY    74  57  55 NE10      30.07S
GALVESTON      MOCLDY    76  63  64 NE12      30.07S
ANGLETON       MOCLDY    68  62  81 N3        30.07R
*BAY CITY      PTCLDY    69  64  83 NE5       30.06S
PALACIOS         N/A     68  60  75 NE7       30.05S
$$

TXZ229>234-239>247-240500-
TEXAS COASTAL BEND AND RIO GRANDE PLAINS

CITY           SKY/WX    TMP DP  RH WIND       PRES   REMARKS
VICTORIA       PTCLDY    69  62  78 NE7       30.06R
*BEEVILLE      PTCLDY    72  57  60 E6        30.05R
ROCKPORT       NOT AVBL
*PORT ARANSAS  PTCLDY    78  63  59 E13G18    30.03S
*PORT LAVACA   PTCLDY    73  62  68 E8        30.05S
*INGLESIDE     MOCLDY    80  63  57 E9        30.03R
CORPUS CHRISTI MOCLDY    78  65  63 E12       30.03R
CORPUS NAS     MOCLDY    80  65  59 E15       30.03R
*ROBSTOWN      NOT AVBL
ALICE          CLEAR     72  68  87 CALM      30.03R
KINGSVILLE NAS MOCLDY    70  69  97 E7        30.03R
COTULLA        MOCLDY    80  57  45 SE9       30.06R
*FAITH RANCH   MOCLDY    79  68  69 SE3       30.04R
LAREDO         MOCLDY    79  72  79 SE8       30.07R
$$

TXZ248>255-240500-
DEEP SOUTH TEXAS

CITY           SKY/WX    TMP DP  RH WIND       PRES   REMARKS
BROWNSVILLE    PTCLDY    76  74  93 CALM      30.01R
PORT ISABEL    NOT AVBL
*SOUTH PADRE   PTCLDY    82  73  74 NE15      30.00F
HARLINGEN      CLEAR     75  73  93 NE7       30.00S
*HEBBRONVILLE    N/A     76  68  78 E7        30.06S
MCALLEN        CLEAR     77  72  84 NE5       30.03R
*WESLACO       CLEAR     75  71  87 CALM      30.02R
FALFURRIAS     CLEAR    N/A N/A N/A CALM      30.03R
EDINBURG       PTCLDY    75  71  86 CALM      30.03R
*ZAPATA        PTCLDY    77  70  78 SE5       30.04R
$$

TXZ213>215-236>238-242>244-246-247-251-254-255-240500-
CMAN STATIONS

STATION/POSITION TIME  TEMP    WIND        PRES    WAVE
                       AIR SEA DIR/SP/G            HT/PER
                 (UTC) (F)     (DEG/KT/KT) (MB)    (FT/S)
SABINE PASS      0300   73 82   50/  7/ 10 1018.4
SEA RIM ST PARK  0300   73      60/  5/  6 1018.6
NORTH JETTY/GLS  0300   77 81   50/ 11/ 14   N/A
EAGLE POINT      0300   78 80   70/ 11/ 14 1018.3
MORGANS POINT    0300   75      40/  5/  6 1018.3
MISSION/ARANSAS  0300           80/ 10     1018.0
PORT O`CONNOR    0300           50/ 15/ 18   N/A
PORT ARANSAS     0300   80 83   60/ 18/ 19 1017.2
MALAQUITE BEACH  0300   81 83   40/ 15/ 19 1016.0
BAFFIN BAY       0300   80 85   60/ 12/ 14 1016.5
PORT ISABEL      0300   82 83   40/ 12/ 16 1016.2
$$

GMZ080-GMZ150>470-240500-
OFFSHORE BUOY REPORTS

STATION/POSITION TIME  TEMP    WIND        PRES    WAVE
                       AIR SEA DIR/SP/G            HT/PER
                 (UTC) (F)     (DEG/KT/KT) (MB)    (FT/S)
20 E GALVESTON   0400   80 83   70/ 14/ 16 1017.5    3/ 6
90 E PT ARANSAS  0400   81 84   60/ 16/ 19 1016.6    5/ 7
35 NE PT MANSFLD 0300   81 84   60/ 16/ 19 1015.2    5/ 7
200 E PT ISABEL  0300   84 85   60/ 21/ 25 1014.8    6/ 7
$$